Location: Buchloe
(48.0161°N, 10.7316°E)
Time: 06:27:07
(UTC+02:00)

ISS - Pass Details

Date: 12 July 2025
Orbit: 413 x 417 km, 51.6° (Epoch: 16 July)

Event Time Altitude Azimuth Distance (km) Brightness Sun altitude
Rises 01:10:54 0° 289° (WNW) 2,354 0.3 -20.0°
Reaches altitude 10° 01:13:02 10° 294° (WNW) 1,491 -0.6 -20.0°
Maximum altitude 01:16:19 53° 13° (NNE) 519 -3.0 -20.0°
Enters shadow 01:19:21 12° 90° (E) 1,391 -1.1 -20.0°
